Location: Newark
(48.3983°N, 16.0611°E)
Time: 10:55:22
(UTC+00:00)

ISS - Pass Details

Date: 25 January 2020
Orbit: 415 x 422 km, 51.6° (Epoch: 23 February)

Event Time Altitude Azimuth Distance (km) Brightness Sun altitude
Rises 16:33:27 0° 231° (SW) 2,370 1.6 -8.6°
Reaches altitude 10° 16:35:35 10° 225° (SW) 1,507 0.2 -8.9°
Maximum altitude 16:38:52 49° 150° (SSE) 551 -3.3 -9.4°
Enters shadow 16:41:32 14° 77° (ENE) 1,267 -2.0 -9.8°
